Location: Nairn
(57.5833°N, 3.8667°W)
Time: 09:34:10
(UTC+00:00)

N. Korean satellite - Pass Details

Date: 31 October 2020
Orbit: 452 x 504 km, 97.2° (Epoch: 25 November)

Event Time Altitude Azimuth Distance (km) Brightness Sun altitude
Rises 05:09:48 0° 23° (NNE) 2,487 10.5 -18.6°
Reaches altitude 10° 05:12:09 10° 38° (NE) 1,604 9.7 -18.3°
Maximum altitude 05:14:57 23° 93° (E) 1,013 9.1 -17.9°
Drops below altitude 10° 05:17:45 10° 148° (SSE) 1,592 9.6 -17.5°
Sets 05:20:04 0° 163° (SSE) 2,463 10.4 -17.2°
